This is the latest recevied weather packets stored in our database for station/object N5ATR. If no packets are shown the sender has not sent any weather packets the latest 10 day(s).
| Time | Temp. | Humidity | Pressure | Rain* | Wind** | Luminosity | Snow |
|---|---|---|---|---|---|---|---|
| 1778111262 | 12.78° C | 49% | 1014.8 hPa | 0 mm | - | 128 W/m² | - |
| 1778110959 | 12.22° C | 50% | 1014.4 hPa | 0 mm | - | 286 W/m² | - |
| 1778110657 | 12.22° C | 50% | 1014.5 hPa | 0 mm | - | 188 W/m² | - |
| 1778110353 | 13.33° C | 53% | 1014.6 hPa | 0 mm | - | 208 W/m² | - |
| 1778110050 | 12.78° C | 54% | 1014.4 hPa | 0 mm | - | 251 W/m² | - |
| 1778109750 | 12.78° C | 58% | 1014.5 hPa | 0 mm | - | 317 W/m² | - |
| 1778109448 | 11.67° C | 66% | 1014.5 hPa | 0 mm | - | 336 W/m² | - |
| 1778109146 | 10° C | 72% | 1014.5 hPa | 0 mm | - | 184 W/m² | - |
| 1778108842 | 10° C | 74% | 1014.6 hPa | 0 mm | - | 224 W/m² | - |
| 1778108539 | 11.67° C | 59% | 1014.4 hPa | 0 mm | - | 206 W/m² | - |
| 1778108236 | 12.22° C | 51% | 1013.9 hPa | 0 mm | - | 52 W/m² | - |
| 1778107933 | 12.22° C | 48% | 1013.9 hPa | 0 mm | - | 69 W/m² | - |
| 1778107629 | 12.22° C | 47% | 1013.9 hPa | 0 mm | - | 93 W/m² | - |
| 1778107327 | 13.33° C | 45% | 1013.8 hPa | 0 mm | - | 184 W/m² | - |
| 1778107023 | 15.56° C | 34% | 1013.9 hPa | 0 mm | - | 411 W/m² | - |
| 1778106718 | 16.11° C | 32% | 1013.2 hPa | 0 mm | - | 341 W/m² | - |
| 1778106416 | 16.11° C | 31% | 1012.9 hPa | 0 mm | - | 552 W/m² | - |
| 1778106111 | 16.67° C | 31% | 1013.3 hPa | 0 mm | - | 608 W/m² | - |
| 1778105810 | 16.11° C | 31% | 1013 hPa | 0 mm | - | 518 W/m² | - |
| 1778105507 | 16.11° C | 32% | 1013.2 hPa | 0 mm | - | 595 W/m² | - |
| 1778105204 | 15.56° C | 32% | 1013.2 hPa | 0 mm | - | 169 W/m² | - |
| 1778104898 | 14.44° C | 35% | 1013.3 hPa | 0 mm | - | 474 W/m² | - |
| 1778104596 | 15.56° C | 33% | 1013 hPa | 0 mm | - | 154 W/m² | - |
| 1778104291 | 13.89° C | 36% | 1013 hPa | 0 mm | - | 526 W/m² | - |
| 1778103988 | 15° C | 38% | 1013.2 hPa | 0 mm | - | 169 W/m² | - |
* Rain latest hour (hover to see other rain measurements)
** Current wind speed in m/s (hover to see current wind gust speed)